When you browse on this site, cookies collect data to enhance your experience and personalize the content and advertising you see.
Visit our Privacy Policy to learn more. By continuing to use the site, you agree to this use of cookies and data.
  • In Hungary
  • List of Countries
  • For 7 days
  • Water Temperature
  • Weather Map
  • News
  • Weather Widgets
  • user-avatar
    Login

    Hourly Weather Fafe

    Today, 22 November, Friday

    Time Temperature Precipitation Wind Pressure Humidity
    00:00 +9°C° 1.6 mm 2 mps 720 mmHg 94%
    01:00 +9°C° 1.6 mm 3 mps 719 mmHg 94%
    02:00 +9°C° 1.6 mm 3 mps 718 mmHg 94%
    03:00 +9°C° 2.3 mm 3 mps 717 mmHg 95%
    04:00 +9°C° 2.3 mm 3 mps 716 mmHg 95%
    05:00 +9°C° 0 mm 3 mps 715 mmHg 94%
    06:00 +10°C° 3.4 mm 4 mps 715 mmHg 95%
    07:00 +11°C° 3.4 mm 4 mps 714 mmHg 96%
    08:00 +12°C° 3.4 mm 5 mps 714 mmHg 97%
    09:00 +12°C° 0.7 mm 5 mps 714 mmHg 93%
    10:00 +12°C° 0.7 mm 5 mps 714 mmHg 90%
    11:00 +12°C° 0 mm 5 mps 714 mmHg 85%
    12:00 +10°C° 1 mm 6 mps 714 mmHg 85%
    13:00 +10°C° 1 mm 7 mps 713 mmHg 84%
    14:00 +10°C° 1 mm 8 mps 713 mmHg 84%
    15:00 +10°C° 1 mm 8 mps 714 mmHg 85%
    16:00 +10°C° 1 mm 7 mps 714 mmHg 86%
    17:00 +9°C° 1 mm 7 mps 714 mmHg 87%
    18:00 +9°C° 0.7 mm 7 mps 715 mmHg 85%
    19:00 +8°C° 0.7 mm 7 mps 715 mmHg 84%
    20:00 +8°C° 0.7 mm 7 mps 716 mmHg 82%
    21:00 +8°C° 0.4 mm 7 mps 717 mmHg 83%
    22:00 +8°C° 0.4 mm 6 mps 718 mmHg 85%
    23:00 +7°C° 0.4 mm 6 mps 718 mmHg 86%

    Tomorrow, 23 November, Saturday

    Time Temperature Precipitation Wind Pressure Humidity
    00:00 +7°C° 0.2 mm 6 mps 719 mmHg 86%
    01:00 +7°C° 0.2 mm 5 mps 720 mmHg 86%
    02:00 +6°C° 0.2 mm 4 mps 721 mmHg 87%
    03:00 +7°C° 0.1 mm 3 mps 721 mmHg 88%
    04:00 +7°C° 0.1 mm 3 mps 722 mmHg 90%
    05:00 +7°C° 0.1 mm 3 mps 723 mmHg 92%
    06:00 +8°C° 0 mm 2 mps 724 mmHg 91%
    07:00 +8°C° 0 mm 2 mps 724 mmHg 90%
    08:00 +8°C° 0 mm 2 mps 725 mmHg 89%
    09:00 +9°C° 0.1 mm 3 mps 726 mmHg 85%
    10:00 +10°C° 0.1 mm 3 mps 726 mmHg 81%
    11:00 +11°C° 0.1 mm 4 mps 727 mmHg 77%
    12:00 +11°C° 0.2 mm 4 mps 727 mmHg 78%
    13:00 +11°C° 0.2 mm 4 mps 727 mmHg 78%
    14:00 +11°C° 0.2 mm 4 mps 727 mmHg 79%
    15:00 +10°C° 0.1 mm 3 mps 728 mmHg 83%
    16:00 +9°C° 0.1 mm 3 mps 729 mmHg 88%
    17:00 +8°C° 0.1 mm 2 mps 729 mmHg 92%
    18:00 +8°C° 0 mm 2 mps 730 mmHg 93%
    19:00 +9°C° 0 mm 1 mps 730 mmHg 93%
    20:00 +8°C° 0 mm 1 mps 730 mmHg 94%
    21:00 +8°C° 0 mm 1 mps 731 mmHg 93%
    22:00 +8°C° 0 mm 1 mps 731 mmHg 93%
    23:00 +8°C° 0 mm 1 mps 731 mmHg 93%

    Day after tomorrow, 24 November, Sunday

    Time Temperature Precipitation Wind Pressure Humidity
    00:00 +8°C° 0 mm 1 mps 731 mmHg 92%
    01:00 +8°C° 0 mm 1 mps 731 mmHg 92%
    02:00 +8°C° 0 mm 1 mps 731 mmHg 92%
    03:00 +9°C° 0 mm 1 mps 731 mmHg 91%
    04:00 +9°C° 0 mm 1 mps 731 mmHg 90%
    05:00 +9°C° 0 mm 1 mps 732 mmHg 90%
    06:00 +9°C° 0 mm 1 mps 732 mmHg 89%
    07:00 +10°C° 0 mm 1 mps 732 mmHg 89%
    08:00 +10°C° 0 mm 1 mps 732 mmHg 88%
    09:00 +10°C° 0 mm 1 mps 732 mmHg 88%
    10:00 +10°C° 0 mm 1 mps 732 mmHg 88%
    11:00 +11°C° 0 mm 1 mps 732 mmHg 87%
    12:00 +10°C° 0.2 mm 2 mps 731 mmHg 89%
    13:00 +10°C° 0.2 mm 2 mps 731 mmHg 91%
    14:00 +10°C° 0.2 mm 2 mps 730 mmHg 92%
    15:00 +10°C° 0.7 mm 2 mps 730 mmHg 94%
    16:00 +10°C° 0.7 mm 2 mps 730 mmHg 95%
    17:00 +10°C° 0.7 mm 2 mps 730 mmHg 96%
    18:00 +12°C° 1.5 mm 2 mps 730 mmHg 97%
    19:00 +11°C° 1.5 mm 3 mps 730 mmHg 98%
    20:00 +12°C° 1.5 mm 3 mps 730 mmHg 98%
    21:00 +12°C° 1.1 mm 3 mps 730 mmHg 98%
    22:00 +13°C° 1.1 mm 3 mps 730 mmHg 98%
    23:00 +14°C° 1.1 mm 3 mps 730 mmHg 98%

    25 November, Monday

    Time Temperature Precipitation Wind Pressure Humidity
    00:00 +13°C° 0.3 mm 3 mps 730 mmHg 98%
    01:00 +13°C° 0.3 mm 3 mps 730 mmHg 98%
    02:00 +13°C° 0.3 mm 2 mps 730 mmHg 98%
    03:00 +13°C° 0.3 mm 2 mps 730 mmHg 96%
    04:00 +13°C° 0.3 mm 2 mps 730 mmHg 95%
    05:00 +13°C° 0.3 mm 2 mps 731 mmHg 93%
    06:00 +13°C° 0.1 mm 2 mps 731 mmHg 92%
    07:00 +13°C° 0.1 mm 2 mps 732 mmHg 91%
    08:00 +13°C° 0.1 mm 2 mps 732 mmHg 90%
    09:00 +14°C° 0.1 mm 2 mps 732 mmHg 88%
    10:00 +14°C° 0.1 mm 2 mps 733 mmHg 86%
    11:00 +14°C° 0.1 mm 3 mps 733 mmHg 83%
    12:00 +14°C° 0.1 mm 3 mps 733 mmHg 82%
    13:00 +14°C° 0.1 mm 2 mps 732 mmHg 82%
    14:00 +14°C° 0.1 mm 2 mps 732 mmHg 81%
    15:00 +14°C° 0 mm 2 mps 732 mmHg 84%
    16:00 +13°C° 0 mm 1 mps 733 mmHg 86%
    17:00 +12°C° 0 mm 1 mps 733 mmHg 89%
    18:00 +12°C° 0 mm 1 mps 733 mmHg 90%
    19:00 +12°C° 0 mm 1 mps 733 mmHg 91%
    20:00 +11°C° 0 mm 1 mps 733 mmHg 91%
    21:00 +12°C° 0 mm 1 mps 733 mmHg 91%
    22:00 +12°C° 0 mm 1 mps 733 mmHg 91%
    23:00 +12°C° 0 mm 1 mps 732 mmHg 90%

    26 November, Tuesday

    Time Temperature Precipitation Wind Pressure Humidity
    00:00 +12°C° 0 mm 1 mps 732 mmHg 91%
    01:00 +12°C° 0 mm 1 mps 732 mmHg 91%
    02:00 +12°C° 0 mm 1 mps 732 mmHg 91%
    03:00 +12°C° 0 mm 1 mps 731 mmHg 92%
    04:00 +12°C° 0 mm 2 mps 731 mmHg 92%
    05:00 +12°C° 0 mm 2 mps 731 mmHg 92%
    06:00 +12°C° 0 mm 2 mps 731 mmHg 92%
    07:00 +12°C° 0 mm 2 mps 731 mmHg 92%
    08:00 +13°C° 0 mm 2 mps 730 mmHg 91%
    09:00 +13°C° 0 mm 2 mps 730 mmHg 90%
    10:00 +13°C° 0 mm 3 mps 730 mmHg 89%
    11:00 +13°C° 0 mm 3 mps 730 mmHg 87%
    12:00 +13°C° 0.2 mm 3 mps 729 mmHg 88%
    13:00 +13°C° 0.2 mm 4 mps 728 mmHg 90%
    14:00 +13°C° 0.2 mm 4 mps 728 mmHg 91%
    15:00 +14°C° 0.2 mm 4 mps 728 mmHg 92%
    16:00 +14°C° 0.2 mm 5 mps 728 mmHg 94%
    17:00 +14°C° 0.2 mm 5 mps 728 mmHg 95%
    18:00 +14°C° 2.2 mm 5 mps 728 mmHg 95%
    19:00 +14°C° 2.2 mm 5 mps 728 mmHg 96%
    20:00 +14°C° 2.2 mm 6 mps 728 mmHg 96%
    21:00 +14°C° 3.8 mm 4 mps 728 mmHg 96%
    22:00 +13°C° 3.8 mm 3 mps 728 mmHg 97%
    23:00 +14°C° 3.8 mm 2 mps 728 mmHg 97%

    27 November, Wednesday

    Time Temperature Precipitation Wind Pressure Humidity
    00:00 +13°C° 1.5 mm 2 mps 728 mmHg 96%
    01:00 +13°C° 1.5 mm 1 mps 728 mmHg 96%
    02:00 +12°C° 1.5 mm 1 mps 728 mmHg 96%
    03:00 +12°C° 0.5 mm 1 mps 728 mmHg 95%
    04:00 +12°C° 0.5 mm 1 mps 728 mmHg 95%
    05:00 +11°C° 0.5 mm 0 mps 728 mmHg 94%
    06:00 +11°C° 0.1 mm 0 mps 728 mmHg 93%
    07:00 +11°C° 0.1 mm 0 mps 728 mmHg 93%
    08:00 +11°C° 0.1 mm 0 mps 729 mmHg 92%
    09:00 +12°C° 0 mm 1 mps 729 mmHg 88%
    10:00 +13°C° 0 mm 1 mps 729 mmHg 85%
    11:00 +13°C° 0 mm 1 mps 729 mmHg 81%
    12:00 +13°C° 0 mm 2 mps 729 mmHg 79%
    13:00 +13°C° 0 mm 2 mps 729 mmHg 78%
    14:00 +13°C° 0 mm 2 mps 729 mmHg 76%
    15:00 +12°C° 0 mm 1 mps 730 mmHg 79%
    16:00 +11°C° 0 mm 1 mps 730 mmHg 81%
    17:00 +11°C° 0 mm 1 mps 731 mmHg 83%
    18:00 +10°C° 0 mm 1 mps 731 mmHg 84%
    19:00 +9°C° 0 mm 0 mps 731 mmHg 85%
    20:00 +9°C° 0 mm 0 mps 732 mmHg 86%
    21:00 +8°C° 0 mm 0 mps 732 mmHg 87%
    22:00 +8°C° 0 mm 0 mps 732 mmHg 88%
    23:00 +8°C° 0 mm 0 mps 733 mmHg 90%
    Show more